Yankton, SD

12:47 AM CDT on April 26, 2017 (GMT -0500)
Gurney Municipal

Weather History for KYKN - September, 2011

Change the Weather History Date:

Saturday, September 3, 2011

  Actual Average Record
Temperature  
Mean Temperature 64 °F -  
Max Temperature 71 °F 83 °F 101 °F (1956)
Min Temperature 55 °F 56 °F 30 °F (1974)
Degree Days  
Heating Degree Days 1    
Growing Degree Days 14 (Base 50)    
Moisture  
Dew Point 57 °F    
Average Humidity 74    
Maximum Humidity 100    
Minimum Humidity 43    
Precipitation  
Precipitation 0.01 in - - ()
Sea Level Pressure  
Sea Level Pressure 29.98 in    
Wind  
Wind Speed 9 mph (NNW)    
Max Wind Speed 28 mph    
Max Gust Speed 36 mph    
Visibility 7 miles    
Events Thunderstorm    
Averages and records for this station are not official NWS values.
T = Trace of Precipitation, MM = Missing Value Source: NWS Daily Summary

Daily Weather History Graph

Daily Weather History Graph

Search for Another Location

Airport or City:

Trip Planner

Search our weather history database for the weather conditions in past years. The results will help you decide how hot, cold, wet, or windy it might be!

Date:

Astronomy

Sep. 03, 2011 Rise Set
Actual Time 6:56 AM CDT 8:01 PM CDT
Civil Twilight 6:26 AM CDT 8:30 PM CDT
Nautical Twilight 5:52 AM CDT 9:04 PM CDT
Astronomical Twilight 5:15 AM CDT 9:41 PM CDT
Moon 1:50 PM CDT (9/3) 11:14 PM CDT (9/3)
Length of Visible Light 14h 03m
Length of Day
13h 05m
Waxing Crescent, 39% of the Moon is Illuminated
Sep 3
Waxing Crescent
Sep 4
First Quarter
Sep 12
Full
Sep 20
Last Quarter
Sep 27
New

Hourly Weather History & Observations

Time (CDT) Temp. Dew Point Humidity Pressure Visibility Wind Dir Wind Speed Gust Speed Precip Events Conditions
12:35 AM 66.2 °F 64.4 °F 94% 29.88 in 3.0 mi Calm Calm - N/A   Clear
1:15 AM 64.4 °F 62.6 °F 94% 29.88 in 3.0 mi Calm Calm - N/A   Overcast
1:55 AM 66.2 °F 64.4 °F 94% 29.87 in 3.0 mi Calm Calm - N/A   Overcast
2:15 AM 66.2 °F 64.4 °F 94% 29.86 in 2.0 mi NE 3.5 mph - N/A   Overcast
2:35 AM 68.0 °F 66.2 °F 94% 29.86 in 0.2 mi NE 3.5 mph - N/A   Overcast
2:55 AM 68.0 °F 66.2 °F 94% 29.86 in 0.2 mi Calm Calm - N/A   Overcast
3:15 AM 68.0 °F 66.2 °F 94% 29.87 in 0.2 mi NNE 4.6 mph - N/A   Overcast
3:35 AM 66.2 °F 64.4 °F 94% 29.87 in 0.2 mi NNE 5.8 mph - N/A   Overcast
3:55 AM 66.2 °F 64.4 °F 94% 29.86 in 0.2 mi ENE 4.6 mph - N/A   Overcast
4:15 AM 66.2 °F 64.4 °F 94% 29.86 in 0.2 mi NE 5.8 mph - N/A   Overcast
4:35 AM 66.2 °F 64.4 °F 94% 29.86 in 0.2 mi East 4.6 mph - N/A   Overcast
5:15 AM 66.2 °F 64.4 °F 94% 29.90 in 0.5 mi North 6.9 mph - N/A   Overcast
5:35 AM 66.2 °F 66.2 °F 100% 29.91 in 0.5 mi North 4.6 mph - N/A   Overcast
5:55 AM 66.2 °F 64.4 °F 94% 29.90 in 0.2 mi Calm Calm - N/A   Overcast
6:15 AM 66.2 °F 64.4 °F 94% 29.91 in 0.2 mi NNW 5.8 mph - N/A   Overcast
6:35 AM 66.2 °F 64.4 °F 94% 29.91 in 4.0 mi NNW 8.1 mph - N/A   Overcast
6:55 AM 66.2 °F 64.4 °F 94% 29.91 in 5.0 mi NNW 4.6 mph - N/A   Overcast
7:15 AM 66.2 °F 64.4 °F 94% 29.92 in 4.0 mi North 5.8 mph - N/A Thunderstorm Overcast
7:35 AM 66.2 °F 64.4 °F 94% 29.91 in 3.0 mi NW 11.5 mph - N/A   Mostly Cloudy
7:55 AM 66.2 °F 64.4 °F 94% 29.90 in 2.5 mi NNW 9.2 mph - N/A   Overcast
8:15 AM 66.2 °F 64.4 °F 94% 29.91 in 2.5 mi North 9.2 mph - N/A   Overcast
8:35 AM 66.2 °F 64.4 °F 94% 29.93 in 3.0 mi NNW 11.5 mph - N/A   Overcast
8:55 AM 66.2 °F 64.4 °F 94% 29.93 in 4.0 mi NNW 17.3 mph 20.7 mph N/A   Overcast
9:15 AM 66.2 °F 64.4 °F 94% 29.93 in 5.0 mi NNW 16.1 mph 23.0 mph N/A   Overcast
9:35 AM 68.0 °F 66.2 °F 94% 29.94 in 7.0 mi NNW 17.3 mph 21.9 mph N/A   Mostly Cloudy
9:55 AM 66.2 °F 64.4 °F 94% 29.96 in 10.0 mi NNW 19.6 mph 29.9 mph N/A   Overcast
10:15 AM 68.0 °F 62.6 °F 83% 29.97 in 10.0 mi NNW 19.6 mph 28.8 mph N/A   Overcast
10:35 AM 69.8 °F 62.6 °F 78% 29.97 in 10.0 mi NNW 19.6 mph 29.9 mph N/A   Overcast
11:15 AM 68.0 °F 57.2 °F 68% 30.00 in 10.0 mi NNW 24.2 mph 29.9 mph N/A   Mostly Cloudy
11:55 AM 69.8 °F 57.2 °F 64% 30.02 in 10.0 mi NW 25.3 mph 32.2 mph N/A   Partly Cloudy
12:15 PM - - N/A% 30.02 in 10.0 mi NNW 24.2 mph 32.2 mph N/A   Partly Cloudy
12:35 PM 66.2 °F 53.6 °F 64% 30.03 in 10.0 mi NW 21.9 mph 28.8 mph N/A   Partly Cloudy
12:55 PM 66.2 °F 51.8 °F 60% 30.04 in 10.0 mi NW 23.0 mph 28.8 mph N/A   Mostly Cloudy
1:15 PM 64.4 °F 48.2 °F 56% 30.04 in 10.0 mi NW 20.7 mph 28.8 mph N/A   Overcast
1:35 PM 64.4 °F 48.2 °F 56% 30.04 in 10.0 mi NW 20.7 mph 26.5 mph N/A   Overcast
1:55 PM 64.4 °F 48.2 °F 56% 30.04 in 10.0 mi NW 21.9 mph 28.8 mph N/A   Overcast
2:35 PM 68.0 °F 51.8 °F 56% 30.03 in 10.0 mi NW 24.2 mph 32.2 mph N/A   Partly Cloudy
2:55 PM 69.8 °F 48.2 °F 46% 30.03 in 10.0 mi NW 23.0 mph 33.4 mph N/A   Clear
3:15 PM 71.6 °F 51.8 °F 50% 30.02 in 10.0 mi NW 21.9 mph 31.1 mph N/A   Partly Cloudy
3:35 PM 71.6 °F 50.0 °F 46% 30.02 in 10.0 mi NW 27.6 mph 35.7 mph N/A   Partly Cloudy
3:55 PM 71.6 °F 48.2 °F 43% 30.02 in 10.0 mi NW 24.2 mph 32.2 mph N/A   Clear
4:15 PM 71.6 °F 48.2 °F 43% 30.03 in 10.0 mi NW 24.2 mph 27.6 mph N/A   Clear
4:35 PM 71.6 °F 48.2 °F 43% 30.04 in 10.0 mi NNW 16.1 mph 28.8 mph N/A   Clear
4:55 PM 71.6 °F 48.2 °F 43% 30.03 in 10.0 mi NNW 15.0 mph - N/A   Clear
5:15 PM 71.6 °F 50.0 °F 46% 30.05 in 10.0 mi NNW 18.4 mph 25.3 mph N/A   Clear
5:35 PM 71.6 °F 48.2 °F 43% 30.05 in 10.0 mi NW 20.7 mph 26.5 mph N/A   Clear
5:55 PM 71.6 °F 48.2 °F 43% 30.05 in 10.0 mi NNW 23.0 mph 26.5 mph N/A   Clear
6:15 PM 69.8 °F 48.2 °F 46% 30.05 in 10.0 mi NNW 19.6 mph 25.3 mph N/A   Clear
6:35 PM 69.8 °F 48.2 °F 46% 30.06 in 10.0 mi NNW 21.9 mph 25.3 mph N/A   Clear
7:15 PM 66.2 °F 48.2 °F 52% 30.07 in 10.0 mi NNW 16.1 mph 23.0 mph N/A   Clear
7:55 PM 64.4 °F 48.2 °F 56% 30.08 in 10.0 mi NNW 16.1 mph 21.9 mph N/A   Clear
8:15 PM 62.6 °F 48.2 °F 59% 30.09 in 10.0 mi NNW 12.7 mph - N/A   Clear
8:35 PM 62.6 °F 46.4 °F 55% 30.10 in 10.0 mi NNW 12.7 mph - N/A   Clear
8:55 PM 60.8 °F 46.4 °F 59% 30.11 in 10.0 mi NNW 6.9 mph - N/A   Clear
9:15 PM 59.0 °F 46.4 °F 63% 30.12 in 10.0 mi NNW 5.8 mph - N/A   Clear
9:35 PM 57.2 °F 46.4 °F 67% 30.12 in 10.0 mi NW 8.1 mph - N/A   Clear
9:55 PM 55.4 °F 48.2 °F 77% 30.13 in 10.0 mi NW 5.8 mph - N/A   Clear
10:15 PM 55.4 °F 48.2 °F 77% 30.14 in 10.0 mi WNW 8.1 mph - N/A   Clear
10:35 PM 55.4 °F 48.2 °F 77% 30.14 in 10.0 mi WNW 6.9 mph - N/A   Clear
10:55 PM 55.4 °F 48.2 °F 77% 30.15 in 10.0 mi WNW 6.9 mph - N/A   Clear
11:15 PM 55.4 °F 48.2 °F 77% 30.15 in 10.0 mi WNW 6.9 mph - N/A   Clear
11:35 PM 53.6 °F 48.2 °F 82% 30.16 in 10.0 mi WNW 6.9 mph - N/A   Clear
11:55 PM 53.6 °F 46.4 °F 77% 30.16 in 10.0 mi WNW 8.1 mph - N/A   Clear